Regional Weather Roundup
Issued by NWS Binghamton, NY

Home | Current Version | Previous Version | Text Only | Print | Product List | Glossary On
Versions: 1 2 3 4 5 6 7 8 9 10 11 12 13 14 15 16 17 18 19 20 21 22 23 24 25 26 27 28 29 30 31 32 33 34 35 36 37 38 39 40 41 42 43 44 45 46 47 48 49 50
000
ASUS41 KBGM 071010
RWRBGM

REGIONAL WEATHER ROUNDUP
NATIONAL WEATHER SERVICE BINGHAMTON NY
500 AM EST SUN FEB 07 2016

Note: "fair" indicates few or no clouds below 12,000 feet with no
significant weather and/or obstructions to visibility.

* = Station(s) that does not report precipitation, such as rain,
snow, etc, also no thunder or fog.

!NYZ009-015>018-022>025-036-037-044>046-055>057-062-071100
...CENTRAL NEW YORK...

CITY           SKY/WX    TMP DP  RH WIND       PRES   REMARKS
BINGHAMTON     CLEAR     27  17  66 SW5       30.10S WCI  22
CORTLAND       FAIR      23  21  93 CALM      30.12R
DANSVILLE      PTCLDY    25  19  78 SE5       30.14R WCI  19
ELMIRA         CLEAR     18  17  96 CALM      30.15R
ITHACA         PTCLDY    27  18  69 S6        30.13R WCI  20
HORNELL        PTCLDY    21  19  93 CALM      30.15F
MONTICELLO     CLEAR     19  18  93 N5        30.13F WCI  13
NORWICH        CLEAR     21  19  93 S3        30.15R
PENN YAN       CLEAR     28  20  71 S5        30.12S WCI  23
ROME           PTCLDY    24  22  91 SE3       30.15R
SIDNEY         CLEAR     21  21 100 W3        30.14S
SYRACUSE       PTCLDY    25  21  85 CALM      30.14R
$$

!PAZ038>040-043-044-047-048-072-071100
...NORTHEAST PENNSYLVANIA...

CITY           SKY/WX    TMP DP  RH WIND       PRES   REMARKS
HAZLETON       CLEAR     23  19  86 MISG      30.14F
SCRANTON       CLEAR     25  17  72 CALM      30.14F
$$
&&
KEY
WCI = WIND CHILL INDEX
VSB = VISIBILITY
HX  = HEAT INDEX
$$



USA.gov is the U.S. government's official web portal to all federal, state and local government web resources and services.